Volver al catálogo

STARLINK-34678

ActivoComunicacionesSSO
NORAD 65443·PAYLOAD·🇺🇸 United States

Lanzado Sep 3, 2025 desde Vandenberg Space Force Base

Loading…

Próximos Pases (próximas 24 horas)

TLE

ActualizadoSource: CelesTrak SupGP

Época: Sep 14, 2026, 22:45 UTC

1 65443C 25194K   26257.94840278  .00101670  00000+0  31576-2 0  2572
2 65443  97.2848 107.6492 0001732  93.7973 340.1528 15.33371772    15

Sigue STARLINK-34678 en tiempo real con AllMySat

Download on the App Store